sat.trackr.live / text

‹ back to catalog

STARLINK-1331

NORAD 45578 · 2020-025AZ

PAYLOAD ACTIVE UNKNOWN

§ Identity

Operator
Country
US
Launch date
2020-04-22
Launch site
AFETR
Launch vehicle
Mass (kg)
RCS (m²)

Purposes: comms

External: N2YO · Heavens-Above · Gunter

§ Orbital elements

Epoch: 2026-09-13T03:18:56.102112Z

Period
91.10 min
Inclination
53.0405°
Eccentricity
0.0005142
Mean motion
15.80638942 rev/d
Perigee alt
325.2 km
Apogee alt
332.1 km
Semi-major
6,706.8 km
B*
4.0926e-4
RAAN
225.2082°
Arg perigee
54.2093°
Mean anomaly
305.9406°
Rev number
35,503

§ Raw data

STARLINK-13311 45578U 20025AZ  26256.13814933  .00080022  00000+0  40926-3 0  99962 45578  53.0405 225.2082 0005142  54.2093 305.9406 15.80638942355033

JSON: /api/v1/satellites/45578 · /tle

For live sub-satellite position, see the globe view (requires WebGL).

§ Visibility from observer

Set your observer location to see the next 7 days of passes ≥ 10°. The values pass through the URL so the page stays shareable.

No JS? Fill the form by hand. The geolocation button needs JavaScript.